FW9446 Weather Reports


Display with metric or nautical units.
time (UTC)temp
F
wind
direction
speed
MPH
gust
MPH
rain 1hr
in
rain 24hr
in
rain mn
in
humidity
%
barometer
mb
20260901205557 94 0 0.0 0.0 0.00 0.00 0.00 58 1018.5
20260901205058 93 0 0.0 0.0 0.00 0.00 0.00 59 1018.5
20260901204602 94 0 0.0 0.0 0.00 0.00 0.00 65 1018.5
20260901204101 94 0 0.0 0.0 0.00 0.00 0.00 62 1018.6
20260901203557 95 0 0.0 0.0 0.00 0.00 0.00 64 1018.6
20260901203104 95 0 0.0 0.0 0.00 0.00 0.00 59 1018.7
20260901202556 95 0 0.0 0.0 0.00 0.00 0.00 63 1018.7
20260901202056 95 0 0.0 0.0 0.00 0.00 0.00 53 1018.9
20260901201606 94 0 0.0 0.0 0.00 0.00 0.00 59 1018.9
20260901201057 94 0 0.0 0.0 0.00 0.00 0.00 60 1018.9
20260901200556 94 0 0.0 0.0 0.00 0.00 0.00 59 1018.9
20260901200121 93 0 0.0 0.0 0.00 0.00 0.00 59 1019.0
20260901195556 94 0 0.0 0.0 0.00 0.00 0.00 62 1019.0
20260901195057 93 0 0.0 0.0 0.00 0.00 0.00 60 1019.1
20260901194607 93 0 0.0 0.0 0.00 0.00 0.00 64 1019.2
20260901194057 93 0 0.0 0.0 0.00 0.00 0.00 58 1019.2
20260901193557 93 0 0.0 0.0 0.00 0.00 0.00 60 1019.3
20260901193105 93 0 0.0 0.0 0.00 0.00 0.00 62 1019.3
20260901192557 93 0 0.0 0.0 0.00 0.00 0.00 57 1019.5
20260901192059 93 0 0.0 0.0 0.00 0.00 0.00 60 1019.4
20260901191624 93 0 0.0 0.0 0.00 0.00 0.00 60 1019.5
20260901191059 93 0 0.0 0.0 0.00 0.00 0.00 67 1019.5
20260901190558 93 0 0.0 0.0 0.00 0.00 0.00 64 1019.7
20260901190122 93 0 0.0 0.0 0.00 0.00 0.00 63 1019.7
20260901185559 93 0 0.0 0.0 0.00 0.00 0.00 64 1019.7
20260901185058 92 0 0.0 0.0 0.00 0.00 0.00 62 1019.8
20260901184622 92 0 0.0 0.0 0.00 0.00 0.00 60 1019.8
20260901184058 93 0 0.0 0.0 0.00 0.00 0.00 62 1019.9
20260901183558 93 0 0.0 0.0 0.00 0.00 0.00 64 1019.9
20260901183111 93 0 0.0 0.0 0.00 0.00 0.00 62 1019.9
20260901182603 93 0 0.0 0.0 0.00 0.00 0.00 68 1019.9
20260901182059 93 0 0.0 0.0 0.00 0.00 0.00 64 1020.1
20260901181610 93 0 0.0 0.0 0.00 0.00 0.00 64 1020.1
20260901181058 92 0 0.0 0.0 0.00 0.00 0.00 64 1020.2
20260901180559 92 0 0.0 0.0 0.00 0.00 0.00 66 1020.3
20260901180108 92 0 0.0 0.0 0.00 0.00 0.00 59 1020.1
20260901175558 92 0 0.0 0.0 0.00 0.00 0.00 59 1020.3
20260901175058 92 0 0.0 0.0 0.00 0.00 0.00 61 1020.3
20260901174608 92 0 0.0 0.0 0.00 0.00 0.00 62 1020.3
20260901174058 92 0 0.0 0.0 0.00 0.00 0.00 62 1020.4
20260901173559 92 0 0.0 0.0 0.00 0.00 0.00 65 1020.5
20260901173106 91 0 0.0 0.0 0.00 0.00 0.00 63 1020.6
20260901172558 91 0 0.0 0.0 0.00 0.00 0.00 61 1020.7
20260901172101 90 0 0.0 0.0 0.00 0.00 0.00 63 1020.6
20260901171607 90 0 0.0 0.0 0.00 0.00 0.00 67 1020.8
20260901171059 90 0 0.0 0.0 0.00 0.00 0.00 65 1020.8
20260901170559 90 0 0.0 0.0 0.00 0.00 0.00 65 1020.8
20260901165558 90 0 0.0 0.0 0.00 0.00 0.00 66 1021.1
20260901165058 90 0 0.0 0.0 0.00 0.00 0.00 69 1021.2
20260901164559 89 0 0.0 0.0 0.00 0.00 0.00 67 1021.3
20260901164057 89 0 0.0 0.0 0.00 0.00 0.00 67 1021.4
20260901163558 89 0 0.0 0.0 0.00 0.00 0.00 73 1021.4
20260901163112 89 0 0.0 0.0 0.00 0.00 0.00 72 1021.4
20260901162603 88 0 0.0 0.0 0.00 0.00 0.00 65 1021.5
20260901162100 88 0 0.0 0.0 0.00 0.00 0.00 66 1021.5
20260901161612 88 0 0.0 0.0 0.00 0.00 0.00 70 1021.5
20260901161059 88 0 0.0 0.0 0.00 0.00 0.00 71 1021.7
20260901160558 88 0 0.0 0.0 0.00 0.00 0.00 70 1021.6
20260901160112 88 0 0.0 0.0 0.00 0.00 0.00 76 1021.7
20260901155559 87 0 0.0 0.0 0.00 0.00 0.00 70 1021.7
20260901155102 87 0 0.0 0.0 0.00 0.00 0.00 71 1021.8
20260901154609 86 0 0.0 0.0 0.00 0.00 0.00 75 1021.8
20260901154058 86 0 0.0 0.0 0.00 0.00 0.00 74 1021.9
20260901153558 85 0 0.0 0.0 0.00 0.00 0.00 77 1022.0
20260901153106 84 0 0.0 0.0 0.00 0.00 0.00 78 1022.1
20260901152558 83 0 0.0 0.0 0.00 0.00 0.00 80 1022.0
20260901152058 83 0 0.0 0.0 0.00 0.00 0.00 85 1022.0
20260901151607 82 0 0.0 0.0 0.00 0.00 0.00 86 1022.1
20260901151102 81 0 0.0 0.0 0.00 0.00 0.00 87 1022.1
20260901150559 80 0 0.0 0.0 0.00 0.00 0.00 90 1022.1
20260901145559 79 0 0.0 0.0 0.00 0.00 0.00 89 1022.1
20260901145059 79 0 0.0 0.0 0.00 0.00 0.00 88 1022.1
20260901144600 78 0 0.0 0.0 0.00 0.00 0.00 89 1022.1
20260901144101 78 0 0.0 0.0 0.00 0.00 0.00 89 1022.1
20260901143558 77 0 0.0 0.0 0.00 0.00 0.00 91 1022.1
20260901143110 77 0 0.0 0.0 0.00 0.00 0.00 94 1022.1
20260901142558 76 0 0.0 0.0 0.00 0.00 0.00 94 1022.1
20260901142058 76 0 0.0 0.0 0.00 0.00 0.00 94 1022.0
20260901141605 75 0 0.0 0.0 0.00 0.00 0.00 95 1022.0
20260901141059 75 0 0.0 0.0 0.00 0.00 0.00 97 1021.9
20260901140558 74 0 0.0 0.0 0.00 0.00 0.00 98 1021.8
20260901140111 74 0 0.0 0.0 0.00 0.00 0.00 99 1022.0
20260901135558 74 0 0.0 0.0 0.00 0.00 0.00 99 1022.0
20260901135058 73 0 0.0 0.0 0.00 0.00 0.00 100 1022.0
20260901134608 72 0 0.0 0.0 0.00 0.00 0.00 100 1021.9
20260901134100 72 0 0.0 0.0 0.00 0.00 0.00 100 1021.9
20260901133558 72 0 0.0 0.0 0.00 0.00 0.00 100 1021.8
20260901133102 71 0 0.0 0.0 0.00 0.00 0.00 100 1021.9
20260901132559 71 0 0.0 0.0 0.00 0.00 0.00 100 1021.8
20260901132059 71 0 0.0 0.0 0.00 0.00 0.00 99 1021.9
20260901131608 70 0 0.0 0.0 0.00 0.00 0.00 100 1021.9
20260901131100 70 0 0.0 0.0 0.00 0.00 0.00 99 1021.9
20260901130558 70 0 0.0 0.0 0.00 0.00 0.00 100 1021.9
20260901130105 69 0 0.0 0.0 0.00 0.00 0.00 99 1022.0
20260901125558 69 0 0.0 0.0 0.00 0.00 0.00 99 1021.9
20260901125056 69 0 0.0 0.0 0.00 0.00 0.00 99 1021.9
20260901124602 69 0 0.0 0.0 0.00 0.00 0.00 99 1021.8
20260901124055 69 0 0.0 0.0 0.00 0.00 0.00 99 1021.8
20260901123558 68 0 0.0 0.0 0.00 0.00 0.00 99 1021.7
20260901123101 68 0 0.0 0.0 0.00 0.00 0.00 99 1021.7
20260901122557 68 0 0.0 0.0 0.00 0.00 0.00 99 1021.6
20260901122056 68 0 0.0 0.0 0.00 0.00 0.00 99 1021.5
20260901121607 68 0 0.0 0.0 0.00 0.00 0.00 99 1021.6
20260901121056 68 0 0.0 0.0 0.00 0.00 0.00 99 1021.5
20260901120557 68 0 0.0 0.0 0.00 0.00 0.00 99 1021.5
20260901120108 68 0 0.0 0.0 0.00 0.00 0.00 99 1021.4
20260901115557 68 0 0.0 0.0 0.00 0.00 0.00 99 1021.3
20260901115057 67 0 0.0 0.0 0.00 0.00 0.00 98 1021.2
20260901114648 68 0 0.0 0.0 0.00 0.00 0.00 99 1021.2
20260901114058 67 0 0.0 0.0 0.00 0.00 0.00 98 1021.1
20260901113557 67 0 0.0 0.0 0.00 0.00 0.00 98 1020.9
20260901113104 67 0 0.0 0.0 0.00 0.00 0.00 99 1020.8
20260901112556 67 0 0.0 0.0 0.00 0.00 0.00 99 1020.8
20260901112056 68 0 0.0 0.0 0.00 0.00 0.00 98 1020.8
20260901111602 68 0 0.0 0.0 0.00 0.00 0.00 98 1020.8
20260901111056 68 0 0.0 0.0 0.00 0.00 0.00 98 1020.7
20260901110556 68 0 0.0 0.0 0.00 0.00 0.00 98 1020.6
20260901110108 68 0 0.0 0.0 0.00 0.00 0.00 98 1020.7
20260901105557 68 0 0.0 0.0 0.00 0.00 0.00 98 1020.6
20260901105057 68 0 0.0 0.0 0.00 0.00 0.00 98 1020.5
20260901104602 68 0 0.0 0.0 0.00 0.00 0.00 98 1020.6
20260901104057 68 0 0.0 0.0 0.00 0.00 0.00 98 1020.4
20260901103557 68 0 0.0 0.0 0.00 0.00 0.00 98 1020.3
20260901103106 68 0 0.0 0.0 0.00 0.00 0.00 98 1020.4
20260901102557 68 0 0.0 0.0 0.00 0.00 0.00 98 1020.3
20260901102059 68 0 0.0 0.0 0.00 0.00 0.00 98 1020.3
20260901101606 68 0 0.0 0.0 0.00 0.00 0.00 98 1020.2
20260901101057 68 0 0.0 0.0 0.00 0.00 0.00 98 1020.3
20260901100557 68 0 0.0 0.0 0.00 0.00 0.00 98 1020.2
20260901100106 68 0 0.0 0.0 0.00 0.00 0.00 98 1020.2
20260901095601 68 0 0.0 0.0 0.00 0.00 0.00 98 1020.2
20260901095058 68 0 0.0 0.0 0.00 0.00 0.00 98 1020.2
20260901094601 68 0 0.0 0.0 0.00 0.00 0.00 98 1020.2
20260901094058 68 0 0.0 0.0 0.00 0.00 0.00 98 1020.2
20260901093558 68 0 0.0 0.0 0.00 0.00 0.00 98 1020.2
20260901093110 68 0 0.0 0.0 0.00 0.00 0.00 98 1020.1
20260901092559 68 0 0.0 0.0 0.00 0.00 0.00 98 1020.1
20260901092058 68 0 0.0 0.0 0.00 0.00 0.00 98 1020.1
20260901091614 68 0 0.0 0.0 0.00 0.00 0.00 98 1020.0
20260901091057 68 0 0.0 0.0 0.00 0.00 0.00 98 1019.9
20260901090557 68 0 0.0 0.0 0.00 0.00 0.00 98 1019.8
20260901085558 69 0 0.0 0.0 0.00 0.00 0.00 98 1019.8
20260901085102 68 0 0.0 0.0 0.00 0.00 0.00 98 1019.8
20260901084605 69 0 0.0 0.0 0.00 0.00 0.00 98 1019.8
20260901084058 69 0 0.0 0.0 0.00 0.00 0.00 98 1019.8
20260901083601 69 0 0.0 0.0 0.00 0.00 0.00 98 1019.7
20260901083107 69 0 0.0 0.0 0.00 0.00 0.00 98 1019.8
20260901082557 69 0 0.0 0.0 0.00 0.00 0.00 98 1019.7
20260901082059 69 0 0.0 0.0 0.00 0.00 0.00 98 1019.7
20260901081600 69 0 0.0 0.0 0.00 0.00 0.00 98 1019.7
20260901081058 69 0 0.0 0.0 0.00 0.00 0.00 98 1019.5
20260901080559 69 0 0.0 0.0 0.00 0.00 0.00 98 1019.6
20260901080106 69 0 0.0 0.0 0.00 0.00 0.00 98 1019.5
20260901075559 69 0 0.0 0.0 0.00 0.00 0.00 98 1019.6
20260901075058 69 0 0.0 0.0 0.00 0.00 0.00 98 1019.7
20260901074605 69 0 0.0 0.0 0.00 0.00 0.00 98 1019.6
20260901074058 69 0 0.0 0.0 0.00 0.00 0.00 98 1019.6
20260901073558 69 0 0.0 0.0 0.00 0.00 0.00 98 1019.5
20260901073106 69 0 0.0 0.0 0.00 0.00 0.00 98 1019.5
20260901072558 69 0 0.0 0.0 0.00 0.00 0.00 98 1019.5
20260901072058 69 0 0.0 0.0 0.00 0.00 0.00 97 1019.7
20260901071601 69 0 0.0 0.0 0.00 0.00 0.00 98 1019.8
20260901071057 69 0 0.0 0.0 0.00 0.00 0.00 98 1019.8
20260901070558 69 0 0.0 0.0 0.00 0.00 0.00 98 1019.8
20260901070115 69 0 0.0 0.0 0.00 0.00 0.00 98 1019.8
20260901065559 70 0 0.0 0.0 0.00 0.00 0.00 98 1019.8
20260901065058 70 0 0.0 0.0 0.00 0.00 0.00 98 1019.8
20260901064603 70 0 0.0 0.0 0.00 0.00 0.00 97 1019.8
20260901064058 70 0 0.0 0.0 0.00 0.00 0.00 97 1019.9
20260901063557 70 0 0.0 0.0 0.00 0.00 0.00 97 1019.9
20260901063101 70 0 0.0 0.0 0.00 0.00 0.00 97 1020.0
20260901062601 70 0 0.0 0.0 0.00 0.00 0.00 97 1020.0
20260901062101 70 0 0.0 0.0 0.00 0.00 0.00 97 1019.9
20260901061607 70 0 0.0 0.0 0.00 0.00 0.00 97 1020.0
20260901061058 70 0 0.0 0.0 0.00 0.00 0.00 97 1020.0
20260901060559 70 0 0.0 0.0 0.00 0.00 0.00 97 1020.1
20260901060108 70 0 0.0 0.0 0.00 0.00 0.00 97 1020.1
20260901055558 70 0 0.0 0.0 0.00 0.00 0.00 97 1020.1
20260901055058 70 0 0.0 0.0 0.00 0.00 0.00 97 1020.0
20260901054602 70 0 0.0 0.0 0.00 0.00 0.00 97 1020.0
20260901054058 70 0 0.0 0.0 0.00 0.00 0.00 97 1020.1
20260901053601 70 0 0.0 0.0 0.00 0.00 0.00 97 1020.1
20260901053105 70 0 0.0 0.0 0.00 0.00 0.00 97 1020.1
20260901052558 71 0 0.0 0.0 0.00 0.00 0.00 97 1020.0
20260901052058 71 0 0.0 0.0 0.00 0.00 0.00 97 1020.1
20260901051609 71 0 0.0 0.0 0.00 0.00 0.00 97 1020.0
20260901051058 71 0 0.0 0.0 0.00 0.00 0.00 97 1020.1
20260901050558 71 0 0.0 0.0 0.00 0.00 0.00 97 1020.1
20260901050104 71 0 0.0 0.0 0.00 0.00 0.00 97 1020.1
20260901045558 71 0 0.0 0.0 0.00 0.00 0.00 97 1020.1
20260901045057 71 0 0.0 0.0 0.00 0.00 0.00 97 1020.0
20260901044610 71 0 0.0 0.0 0.00 0.00 0.00 96 1019.9
20260901044100 71 0 0.0 0.0 0.00 0.00 0.00 96 1019.9
20260901043558 71 0 0.0 0.0 0.00 0.00 0.00 96 1019.9
20260901043107 71 0 0.0 0.0 0.00 0.00 0.00 97 1019.9
20260901042557 71 0 0.0 0.0 0.00 0.00 0.00 96 1019.9
20260901042057 71 0 0.0 0.0 0.00 0.00 0.00 96 1020.0
20260901041606 71 0 0.0 0.0 0.00 0.00 0.00 96 1020.0
20260901041102 71 0 0.0 0.0 0.00 0.00 0.00 96 1020.0
20260901040558 72 0 0.0 0.0 0.00 0.00 0.00 96 1020.1
20260901040106 72 0 0.0 0.0 0.00 0.00 0.00 96 1020.0
20260901035558 72 0 0.0 0.0 0.00 0.00 0.00 96 1020.1
20260901035058 72 0 0.0 0.0 0.00 0.00 0.00 96 1020.1
20260901034604 72 0 0.0 0.0 0.00 0.00 0.00 96 1020.0
20260901034057 72 0 0.0 0.0 0.00 0.00 0.00 96 1020.0
20260901033558 72 0 0.0 0.0 0.00 0.00 0.00 96 1020.0
20260901033120 72 0 0.0 0.0 0.00 0.00 0.00 96 1019.9
20260901032602 72 0 0.0 0.0 0.00 0.00 0.00 96 1020.0
20260901032058 72 0 0.0 0.0 0.00 0.00 0.00 96 1020.1
20260901031612 72 0 0.0 0.0 0.00 0.00 0.00 96 1020.0
20260901031100 73 0 0.0 0.0 0.00 0.00 0.00 96 1020.0
20260901030558 73 0 0.0 0.0 0.00 0.00 0.00 96 1020.0
20260901030107 73 0 0.0 0.0 0.00 0.00 0.00 96 1020.1
20260901025601 73 0 0.0 0.0 0.00 0.00 0.00 96 1020.2
20260901025101 73 0 0.0 0.0 0.00 0.00 0.00 95 1020.2
20260901024606 73 0 0.0 0.0 0.00 0.00 0.00 95 1020.2
20260901024058 73 0 0.0 0.0 0.00 0.00 0.00 95 1020.2
20260901023558 73 0 0.0 0.0 0.00 0.00 0.00 95 1020.1
20260901023112 73 0 0.0 0.0 0.00 0.00 0.00 95 1020.1
20260901022558 73 0 0.0 0.0 0.00 0.00 0.00 95 1020.1
20260901022059 73 0 0.0 0.0 0.00 0.00 0.00 95 1020.0
20260901021606 73 0 0.0 0.0 0.00 0.00 0.00 95 1019.9
20260901021058 73 0 0.0 0.0 0.00 0.00 0.00 94 1020.0
20260901020558 73 0 0.0 0.0 0.00 0.00 0.00 94 1019.9
20260901015559 74 0 0.0 0.0 0.00 0.00 0.00 94 1019.8
20260901015058 74 0 0.0 0.0 0.00 0.00 0.00 94 1019.7
20260901014601 74 0 0.0 0.0 0.00 0.00 0.00 94 1019.6
20260901014058 74 0 0.0 0.0 0.00 0.00 0.00 94 1019.5
20260901013558 74 0 0.0 0.0 0.00 0.00 0.00 93 1019.4
20260901013116 74 0 0.0 0.0 0.00 0.00 0.00 93 1019.4
20260901012557 74 0 0.0 0.0 0.00 0.00 0.00 93 1019.3
20260901012058 75 0 0.0 0.0 0.00 0.00 0.00 93 1019.5
20260901011618 75 0 0.0 0.0 0.00 0.00 0.00 93 1019.3
20260901011058 75 0 0.0 0.0 0.00 0.00 0.00 93 1019.4
20260901010558 75 0 0.0 0.0 0.00 0.00 0.00 92 1019.2
20260901010117 75 0 0.0 0.0 0.00 0.00 0.00 92 1019.2
20260901005558 75 0 0.0 0.0 0.00 0.00 0.00 92 1019.0
20260901005102 76 0 0.0 0.0 0.00 0.00 0.00 92 1018.9
20260901004607 76 0 0.0 0.0 0.00 0.00 0.00 91 1018.8
20260901004057 76 0 0.0 0.0 0.00 0.00 0.00 91 1018.9
20260901003602 76 0 0.0 0.0 0.00 0.00 0.00 91 1018.8
20260901003100 76 0 0.0 0.0 0.00 0.00 0.00 91 1018.8
20260901002601 77 0 0.0 0.0 0.00 0.00 0.00 90 1018.8
20260901002102 77 0 0.0 0.0 0.00 0.00 0.00 90 1018.7
20260901001605 77 0 0.0 0.0 0.00 0.00 0.00 89 1018.8
20260901001059 78 0 0.0 0.0 0.00 0.00 0.00 89 1018.8
20260901000558 78 0 0.0 0.0 0.00 0.00 0.00 89 1018.9
20260901000105 78 0 0.0 0.0 0.00 0.00 0.00 89 1018.9
20260831235558 79 0 0.0 0.0 0.00 0.00 0.00 88 1018.9
20260831235058 79 0 0.0 0.0 0.00 0.00 0.00 88 1018.8
20260831234604 79 0 0.0 0.0 0.00 0.00 0.00 87 1018.8
20260831234057 79 0 0.0 0.0 0.00 0.00 0.00 87 1018.8
20260831233559 80 0 0.0 0.0 0.00 0.00 0.00 86 1018.8
20260831233105 80 0 0.0 0.0 0.00 0.00 0.00 85 1018.8
20260831232602 80 0 0.0 0.0 0.00 0.00 0.00 85 1018.9
20260831232103 81 0 0.0 0.0 0.00 0.00 0.00 84 1018.9
20260831231603 81 0 0.0 0.0 0.00 0.00 0.00 83 1018.8
20260831231058 81 0 0.0 0.0 0.00 0.00 0.00 82 1018.8
20260831230601 82 0 0.0 0.0 0.00 0.00 0.00 82 1019.0
20260831230117 82 0 0.0 0.0 0.00 0.00 0.00 81 1018.9
20260831225601 82 0 0.0 0.0 0.00 0.00 0.00 82 1018.9
20260831225058 83 0 0.0 0.0 0.00 0.00 0.00 80 1019.0
20260831224602 83 0 0.0 0.0 0.00 0.00 0.00 80 1019.0
20260831224101 83 0 0.0 0.0 0.00 0.00 0.00 81 1019.2
20260831223601 84 0 0.0 0.0 0.00 0.00 0.00 78 1019.2
20260831223107 84 0 0.0 0.0 0.00 0.00 0.00 77 1019.1
20260831222558 85 0 0.0 0.0 0.00 0.00 0.00 76 1019.0
20260831222057 85 0 0.0 0.0 0.00 0.00 0.00 74 1019.0
20260831221609 86 0 0.0 0.0 0.00 0.00 0.00 71 1019.1
20260831221057 86 0 0.0 0.0 0.00 0.00 0.00 71 1019.1
20260831220557 87 0 0.0 0.0 0.00 0.00 0.00 71 1019.1
20260831220115 88 0 0.0 0.0 0.00 0.00 0.00 70 1019.1
20260831215556 88 0 0.0 0.0 0.00 0.00 0.00 70 1019.2
20260831215057 89 0 0.0 0.0 0.00 0.00 0.00 68 1019.0
20260831214612 89 0 0.0 0.0 0.00 0.00 0.00 67 1019.1
20260831214059 90 0 0.0 0.0 0.00 0.00 0.00 65 1019.2
20260831213558 90 0 0.0 0.0 0.00 0.00 0.00 64 1019.3
20260831213102 91 0 0.0 0.0 0.00 0.00 0.00 63 1019.3
20260831212558 91 0 0.0 0.0 0.00 0.00 0.00 63 1019.4
20260831212100 91 0 0.0 0.0 0.00 0.00 0.00 63 1019.4
20260831211608 92 0 0.0 0.0 0.00 0.00 0.00 61 1019.5
20260831211058 92 0 0.0 0.0 0.00 0.00 0.00 59 1019.4
20260831210557 92 0 0.0 0.0 0.00 0.00 0.00 61 1019.5